When you browse on this site, cookies collect data to enhance your experience and personalize the content and advertising you see.
Visit our Privacy Policy to learn more. By continuing to use the site, you agree to this use of cookies and data.
  • In Romania
  • List of Countries
  • For 7 days
  • Water Temperature
  • Satellite Maps
  • Weather Map
  • Weather Widgets
  • user-avatar
    Login

    Hourly Weather Shusha

    Today, 21 April, Sunday

    Time Temperature Precipitation Wind Pressure Humidity
    00:00 -1°C° 0 mm 0 mps 657 mmHg 93%
    01:00 -2°C° 0 mm 0 mps 657 mmHg 93%
    02:00 -2°C° 0 mm 0 mps 657 mmHg 93%
    03:00 -2°C° 0 mm 0 mps 657 mmHg 93%
    04:00 -2°C° 0 mm 0 mps 657 mmHg 93%
    05:00 -1°C° 0 mm 0 mps 657 mmHg 92%
    06:00 0°C° 0 mm 1 mps 658 mmHg 91%
    07:00 +1°C° 0 mm 1 mps 658 mmHg 89%
    08:00 +1°C° 0 mm 2 mps 658 mmHg 87%
    09:00 +2°C° 0 mm 2 mps 658 mmHg 84%
    10:00 +2°C° 0.1 mm 2 mps 658 mmHg 84%
    11:00 +2°C° 0.1 mm 2 mps 658 mmHg 85%
    12:00 +2°C° 0.1 mm 2 mps 657 mmHg 85%
    13:00 +2°C° 0.1 mm 3 mps 657 mmHg 84%
    14:00 +2°C° 0.1 mm 3 mps 657 mmHg 83%
    15:00 +3°C° 0.1 mm 3 mps 657 mmHg 83%
    16:00 +2°C° 0.1 mm 3 mps 657 mmHg 85%
    17:00 +3°C° 0.1 mm 2 mps 657 mmHg 88%
    18:00 +2°C° 0.1 mm 2 mps 657 mmHg 90%
    19:00 +2°C° 0.3 mm 2 mps 657 mmHg 92%
    20:00 +2°C° 0.3 mm 2 mps 658 mmHg 93%
    21:00 +1°C° 0.3 mm 2 mps 658 mmHg 95%
    22:00 +2°C° 0.4 mm 1 mps 658 mmHg 95%
    23:00 +2°C° 0.4 mm 1 mps 658 mmHg 96%

    Tomorrow, 22 April, Monday

    Time Temperature Precipitation Wind Pressure Humidity
    00:00 +2°C° 0.4 mm 1 mps 658 mmHg 96%
    01:00 +1°C° 0.2 mm 1 mps 658 mmHg 96%
    02:00 +1°C° 0.2 mm 1 mps 658 mmHg 96%
    03:00 +1°C° 0.2 mm 1 mps 658 mmHg 95%
    04:00 +1°C° 0.1 mm 1 mps 658 mmHg 95%
    05:00 +1°C° 0.1 mm 1 mps 658 mmHg 94%
    06:00 +1°C° 0.1 mm 1 mps 658 mmHg 93%
    07:00 +1°C° 0.3 mm 1 mps 658 mmHg 90%
    08:00 +1°C° 0.3 mm 2 mps 658 mmHg 88%
    09:00 +2°C° 0.3 mm 2 mps 658 mmHg 85%
    10:00 +2°C° 0.4 mm 2 mps 657 mmHg 84%
    11:00 +2°C° 0.4 mm 2 mps 657 mmHg 83%
    12:00 +2°C° 0.4 mm 3 mps 657 mmHg 82%
    13:00 +2°C° 0.6 mm 3 mps 657 mmHg 83%
    14:00 +3°C° 0.6 mm 2 mps 657 mmHg 83%
    15:00 +3°C° 0.6 mm 2 mps 657 mmHg 83%
    16:00 +2°C° 1 mm 2 mps 657 mmHg 86%
    17:00 +3°C° 1 mm 1 mps 657 mmHg 89%
    18:00 +2°C° 1 mm 1 mps 657 mmHg 91%
    19:00 +2°C° 0.9 mm 1 mps 658 mmHg 92%
    20:00 +2°C° 0.9 mm 1 mps 658 mmHg 93%
    21:00 +2°C° 0.9 mm 1 mps 659 mmHg 94%
    22:00 +1°C° 0.9 mm 1 mps 659 mmHg 94%
    23:00 +1°C° 0.9 mm 1 mps 659 mmHg 93%

    Day after tomorrow, 23 April, Tuesday

    Time Temperature Precipitation Wind Pressure Humidity
    00:00 0°C° 0.9 mm 0 mps 659 mmHg 93%
    01:00 0°C° 0.6 mm 0 mps 659 mmHg 92%
    02:00 0°C° 0.6 mm 0 mps 660 mmHg 91%
    03:00 0°C° 0.6 mm 0 mps 660 mmHg 90%
    04:00 0°C° 0.4 mm 0 mps 660 mmHg 89%
    05:00 0°C° 0.4 mm 0 mps 660 mmHg 89%
    06:00 0°C° 0.4 mm 0 mps 660 mmHg 88%
    07:00 +2°C° 0.3 mm 1 mps 661 mmHg 87%
    08:00 +3°C° 0.3 mm 1 mps 661 mmHg 85%
    09:00 +2°C° 0.3 mm 2 mps 662 mmHg 84%
    10:00 +3°C° 0.3 mm 2 mps 662 mmHg 83%
    11:00 +3°C° 0.3 mm 3 mps 662 mmHg 82%
    12:00 +3°C° 0.3 mm 3 mps 662 mmHg 81%
    13:00 +4°C° 0.1 mm 3 mps 662 mmHg 80%
    14:00 +4°C° 0.1 mm 3 mps 662 mmHg 80%
    15:00 +4°C° 0.1 mm 3 mps 661 mmHg 79%
    16:00 +4°C° 0.2 mm 3 mps 661 mmHg 81%
    17:00 +4°C° 0.2 mm 2 mps 662 mmHg 82%
    18:00 +4°C° 0.2 mm 2 mps 662 mmHg 84%
    19:00 +3°C° 0 mm 2 mps 662 mmHg 84%
    20:00 +3°C° 0 mm 1 mps 662 mmHg 85%
    21:00 +2°C° 0 mm 1 mps 662 mmHg 85%
    22:00 +2°C° 0 mm 1 mps 662 mmHg 83%
    23:00 +2°C° 0 mm 1 mps 662 mmHg 82%

    24 April, Wednesday

    Time Temperature Precipitation Wind Pressure Humidity
    00:00 +1°C° 0 mm 1 mps 662 mmHg 81%
    01:00 +2°C° 0.1 mm 1 mps 662 mmHg 81%
    02:00 +2°C° 0.1 mm 1 mps 662 mmHg 82%
    03:00 +2°C° 0.1 mm 1 mps 662 mmHg 82%
    04:00 +2°C° 0.3 mm 1 mps 663 mmHg 84%
    05:00 +2°C° 0.3 mm 1 mps 663 mmHg 87%
    06:00 +2°C° 0.3 mm 1 mps 663 mmHg 89%
    07:00 +3°C° 0.4 mm 1 mps 663 mmHg 87%
    08:00 +4°C° 0.4 mm 1 mps 664 mmHg 85%
    09:00 +4°C° 0.4 mm 1 mps 664 mmHg 83%
    10:00 +4°C° 0.2 mm 2 mps 664 mmHg 81%
    11:00 +4°C° 0.2 mm 2 mps 664 mmHg 79%
    12:00 +5°C° 0.2 mm 2 mps 664 mmHg 77%
    13:00 +5°C° 0.4 mm 2 mps 663 mmHg 78%
    14:00 +5°C° 0.4 mm 2 mps 663 mmHg 78%
    15:00 +5°C° 0.4 mm 2 mps 662 mmHg 78%
    16:00 +6°C° 0.3 mm 1 mps 662 mmHg 80%
    17:00 +6°C° 0.3 mm 1 mps 662 mmHg 82%
    18:00 +5°C° 0.3 mm 1 mps 662 mmHg 84%
    19:00 +5°C° 0.3 mm 1 mps 663 mmHg 86%
    20:00 +3°C° 0.3 mm 0 mps 663 mmHg 87%
    21:00 +2°C° 0.3 mm 0 mps 663 mmHg 89%
    22:00 +2°C° 0.3 mm 0 mps 663 mmHg 89%
    23:00 +2°C° 0.3 mm 0 mps 663 mmHg 88%

    25 April, Thursday

    Time Temperature Precipitation Wind Pressure Humidity
    00:00 +3°C° 0.3 mm 1 mps 663 mmHg 88%
    01:00 +3°C° 0.2 mm 1 mps 663 mmHg 87%
    02:00 +2°C° 0.2 mm 1 mps 663 mmHg 87%
    03:00 +2°C° 0.2 mm 1 mps 663 mmHg 86%
    04:00 +2°C° 0.1 mm 1 mps 663 mmHg 85%
    05:00 +2°C° 0.1 mm 1 mps 663 mmHg 85%
    06:00 +2°C° 0.1 mm 1 mps 663 mmHg 84%
    07:00 +3°C° 0.1 mm 1 mps 664 mmHg 80%
    08:00 +5°C° 0.1 mm 1 mps 664 mmHg 76%
    09:00 +6°C° 0.1 mm 1 mps 665 mmHg 72%
    10:00 +7°C° 0 mm 1 mps 664 mmHg 70%
    11:00 +6°C° 0 mm 2 mps 664 mmHg 68%
    12:00 +7°C° 0 mm 2 mps 664 mmHg 66%
    13:00 +7°C° 0.1 mm 2 mps 664 mmHg 65%
    14:00 +8°C° 0.1 mm 2 mps 664 mmHg 65%
    15:00 +8°C° 0.1 mm 2 mps 663 mmHg 64%
    16:00 +7°C° 0.1 mm 2 mps 663 mmHg 67%
    17:00 +7°C° 0.1 mm 1 mps 663 mmHg 71%
    18:00 +7°C° 0.1 mm 1 mps 663 mmHg 75%
    19:00 +6°C° 0 mm 1 mps 663 mmHg 77%
    20:00 +5°C° 0 mm 1 mps 663 mmHg 78%
    21:00 +3°C° 0 mm 1 mps 663 mmHg 80%
    22:00 +3°C° 0 mm 1 mps 663 mmHg 79%
    23:00 +2°C° 0 mm 2 mps 663 mmHg 78%

    26 April, Friday

    Time Temperature Precipitation Wind Pressure Humidity
    00:00 +1°C° 0 mm 2 mps 663 mmHg 77%
    01:00 +1°C° 0 mm 2 mps 663 mmHg 76%
    02:00 +1°C° 0 mm 2 mps 663 mmHg 74%
    03:00 +1°C° 0 mm 2 mps 663 mmHg 72%
    04:00 +1°C° 0 mm 2 mps 663 mmHg 70%
    05:00 +1°C° 0 mm 2 mps 663 mmHg 69%
    06:00 +2°C° 0 mm 2 mps 664 mmHg 67%
    07:00 +3°C° 0 mm 2 mps 664 mmHg 63%
    08:00 +6°C° 0 mm 1 mps 664 mmHg 60%
    09:00 +8°C° 0 mm 1 mps 665 mmHg 56%
    10:00 +7°C° 0 mm 2 mps 665 mmHg 55%
    11:00 +8°C° 0 mm 2 mps 664 mmHg 55%
    12:00 +9°C° 0 mm 2 mps 664 mmHg 54%
    13:00 +9°C° 0 mm 3 mps 664 mmHg 55%
    14:00 +9°C° 0 mm 3 mps 663 mmHg 57%
    15:00 +9°C° 0 mm 3 mps 663 mmHg 58%
    16:00 +9°C° 0 mm 2 mps 663 mmHg 63%
    17:00 +8°C° 0 mm 2 mps 663 mmHg 68%
    18:00 +7°C° 0 mm 2 mps 662 mmHg 73%
    19:00 +7°C° 0 mm 1 mps 662 mmHg 75%
    20:00 +6°C° 0 mm 1 mps 662 mmHg 77%
    21:00 +4°C° 0 mm 1 mps 662 mmHg 79%
    22:00 +4°C° 0 mm 1 mps 662 mmHg 78%
    23:00 +3°C° 0 mm 2 mps 662 mmHg 76%
    Show more